[[{"header":{"parameterUnit":"m.s-1","parameterCategory":1,"la1":30.2991,"la2":30.254,"lo1":-89.0895,"lo2":-89.0444,"dy":0.0017,"dx":0.0017,"nx":28,"ny":28,"refTime":"2024-07-01T21:00:00:Z","depth":0,"parameterNumber":2,"parameterNumberName":"U-component_of_WINDS"},"data":[0,0,0,0,0,0,0,0,0,0,0,0,0,0,0,0,0,0,0,0,0,0,0,0,0,0,0,0,0,0,0,0,0,0,0,0,0,0,0,0,0,0,0,0,0,0,0,0,0,0,0,0,0,0,0,0,0,0,-0.069,-0.069,0,-0.0709,-0.0709,-0.0709,-0.0737,-0.0737,-0.0738,-0.0738,-0.0756,-0.0756,-0.0756,0,0,0,0,0,0,0,0,0,0,0,0,0,-0.0675,-0.0675,-0.069,-0.069,-0.069,-0.0709,-0.0709,-0.0709,-0.0737,-0.0737,-0.0738,-0.0738,-0.0756,-0.0756,-0.0756,0,0,0,0,0,0,0,0,0,0,0,0,0,-0.0686,-0.0675,-0.069,-0.0706,-0.0708,-0.0709,-0.0709,-0.071,-0.0737,-0.0737,-0.0738,-0.0739,-0.0756,-0.0756,-0.0756,-0.0742,0,0,-0.0756,-0.0756,0,0,0,0,0,0,0,0,-0.0686,-0.0687,-0.0704,-0.0705,-0.0707,-0.0721,-0.071,-0.072,-0.0736,-0.0726,-0.0738,-0.0739,-0.0744,-0.0745,-0.0747,-0.0743,-0.0743,-0.0756,-0.0756,-0.0756,-0.0756,0,0,0,0,0,0,0,-0.0685,-0.0686,-0.0697,-0.0704,-0.0706,-0.0712,-0.0714,-0.0712,-0.073,-0.0727,-0.0729,-0.0731,-0.0745,-0.0747,-0.0747,-0.0744,-0.0756,-0.0756,-0.0756,-0.0756,-0.0728,-0.0728,0,0,0,0,0,0,-0.0682,-0.0685,-0.0697,-0.0698,-0.0698,-0.0712,-0.0714,-0.0716,-0.073,-0.0733,-0.073,-0.0732,-0.0746,-0.0747,-0.0748,-0.0732,-0.0756,-0.0756,-0.0756,-0.0729,-0.0728,-0.0727,0,0,0,0,0,0,-0.0681,-0.0683,-0.0696,-0.0692,-0.0694,-0.0711,-0.0713,-0.0716,-0.0718,-0.0733,-0.0736,-0.0729,-0.0747,-0.0748,-0.0743,-0.0733,-0.0756,-0.0756,-0.073,-0.0729,-0.0728,-0.07,0,0,0,0,0,0,-0.0681,-0.0682,-0.0678,-0.0692,-0.0694,-0.0691,-0.0712,-0.0716,-0.0718,-0.0721,-0.0733,-0.0735,-0.0747,-0.0743,-0.0743,-0.0734,-0.0756,-0.0731,-0.073,-0.0728,-0.0702,-0.0699,-0.0695,0,0,0,0,0,-0.068,-0.0669,-0.0677,-0.0678,-0.0689,-0.0691,-0.0692,-0.0707,-0.0717,-0.0712,-0.0722,-0.0735,-0.0734,-0.0742,-0.0743,-0.0733,-0.0732,-0.073,-0.0728,-0.0704,-0.0699,-0.0695,0,0,0,0,0,0,-0.0652,-0.0671,-0.068,-0.0673,-0.068,-0.0695,-0.069,-0.0701,-0.0705,-0.0707,-0.0725,-0.0727,-0.072,-0.0726,-0.0735,-0.072,-0.0735,-0.0733,-0.0716,-0.0712,-0.0708,-0.0707,-0.0756,0,0,0,0,0,-0.0645,-0.0646,-0.0662,-0.0654,-0.0657,-0.0673,-0.0674,-0.0685,-0.0692,-0.0695,-0.0704,-0.0711,-0.0712,-0.0712,-0.0714,-0.0703,-0.0706,-0.0697,-0.0693,-0.069,-0.0689,-0.0683,-0.0679,-0.0722,-0.0722,-0.0722,0,0,-0.0631,-0.0641,-0.064,-0.0649,-0.0655,-0.0655,-0.0675,-0.0673,-0.0673,-0.0695,-0.0691,-0.0698,-0.0706,-0.0698,-0.0695,-0.0703,-0.0677,-0.0688,-0.0686,-0.0686,-0.0681,-0.0677,-0.0673,-0.0721,-0.0721,-0.0721,0,0,-0.0604,-0.0612,-0.0606,-0.0613,-0.0623,-0.0633,-0.0632,-0.0645,-0.0651,-0.0647,-0.0663,-0.0663,-0.0665,-0.067,-0.0672,-0.0647,-0.0659,-0.0647,-0.0629,-0.0623,-0.062,-0.0617,-0.0607,-0.0604,-0.0646,-0.0646,-0.0646,0,-0.0584,-0.0585,-0.0602,-0.0599,-0.0602,-0.0622,-0.0616,-0.0621,-0.0631,-0.0632,-0.0641,-0.0644,-0.0651,-0.0644,-0.0638,-0.064,-0.0638,-0.0646,-0.0619,-0.0616,-0.0614,-0.0605,-0.0601,-0.0644,-0.0644,-0.0644,-0.0645,0,-0.056,-0.056,-0.0554,-0.0564,-0.0566,-0.0562,-0.0577,-0.0577,-0.0588,-0.0597,-0.0593,-0.0602,-0.0606,-0.0605,-0.0615,-0.06,-0.0604,-0.0616,-0.0631,-0.0608,-0.06,-0.0597,-0.0642,-0.0642,-0.0643,-0.0643,0,0,-0.0516,-0.0535,-0.0532,-0.0537,-0.0549,-0.0549,-0.0546,-0.055,-0.055,-0.0556,-0.0553,-0.0554,-0.0565,-0.0568,-0.0578,-0.0573,-0.0552,-0.0585,-0.0586,-0.0579,-0.0535,-0.0526,-0.0522,-0.0561,-0.056,-0.056,-0.0534,0,-0.0491,-0.0487,-0.0502,-0.0493,-0.0493,-0.0512,-0.0509,-0.0516,-0.0524,-0.0525,-0.0534,-0.0534,-0.0549,-0.0551,-0.0547,-0.0556,-0.0544,-0.0558,-0.0557,-0.0557,-0.0554,-0.0518,-0.0509,-0.0485,-0.0531,-0.0531,-0.0531,0,-0.0462,-0.0467,-0.0458,-0.0471,-0.0472,-0.0469,-0.0474,-0.0475,-0.0482,-0.0489,-0.0492,-0.0505,-0.0502,-0.0517,-0.0512,-0.0521,-0.0522,-0.0526,-0.0525,-0.0526,-0.0542,-0.0517,-0.0477,-0.0474,-0.0526,-0.0526,-0.0527,0,-0.043,-0.0434,-0.043,-0.0433,-0.0448,-0.0446,-0.0452,-0.046,-0.0462,-0.0466,-0.0468,-0.0471,-0.0473,-0.0475,-0.0488,-0.0498,-0.0482,-0.0498,-0.0486,-0.0486,-0.0482,-0.0482,-0.0441,-0.0483,-0.0483,-0.0483,-0.0483,0,-0.04,-0.0394,-0.0416,-0.0413,-0.0407,-0.0424,-0.0417,-0.0424,-0.0432,-0.043,-0.0447,-0.0445,-0.0463,-0.0463,-0.0473,-0.0467,-0.0468,-0.0472,-0.0475,-0.047,-0.047,-0.0471,-0.0473,-0.0482,-0.0482,-0.0482,-0.0482,0,-0.0363,-0.0378,-0.0374,-0.0389,-0.0392,-0.0387,-0.0399,-0.0397,-0.0406,-0.0404,-0.0405,-0.0419,-0.042,-0.0433,-0.0437,-0.0443,-0.0433,-0.0439,-0.0431,-0.0432,-0.042,-0.0421,-0.0378,-0.0373,-0.0418,-0.0418,-0.0417,0,-0.0343,-0.0339,-0.0354,-0.0354,-0.036,-0.036,-0.0362,-0.0379,-0.038,-0.0389,-0.0385,-0.0387,-0.039,-0.039,-0.04,-0.0403,-0.0408,-0.0394,-0.0409,-0.0405,-0.0408,-0.0408,-0.0407,-0.039,-0.0389,-0.0389,-0.0389,0,-0.0306,-0.0314,-0.0316,-0.0321,-0.0323,-0.0328,-0.0334,-0.0333,-0.0351,-0.0351,-0.0352,-0.0354,-0.0358,-0.0359,-0.0364,-0.0369,-0.0381,-0.0384,-0.0381,-0.0376,-0.0371,-0.0374,-0.0421,-0.0385,-0.0385,-0.0385,-0.0385,-0.0386,-0.0277,-0.0274,-0.0284,-0.0286,-0.0292,-0.0297,-0.0296,-0.0305,-0.0307,-0.0311,-0.0321,-0.032,-0.0328,-0.0335,-0.034,-0.0339,-0.0347,-0.0343,-0.0342,-0.0341,-0.0338,-0.0372,-0.034,-0.034,-0.034,-0.034,-0.034,0,-0.0241,-0.0248,-0.025,-0.0257,-0.0259,-0.0271,-0.0278,-0.0278,-0.0278,-0.0284,-0.0287,-0.0288,-0.0289,-0.03,-0.0303,-0.03,-0.0306,-0.0301,-0.0301,-0.0302,-0.0331,-0.0333,-0.0296,-0.0296,-0.0296,-0.0296,-0.0296,-0.0296,-0.0222,-0.0218,-0.0226,-0.0225,-0.0232,-0.0232,-0.0235,-0.0239,-0.0244,-0.0245,-0.0247,-0.0254,-0.0262,-0.0266,-0.0267,-0.0271,-0.027,-0.0263,-0.0268,-0.0295,-0.03,-0.0304,-0.0305,-0.0263,-0.0263,-0.0238,-0.0238,-0.0238]},{"header":{"parameterUnit":"m.s-1","parameterCategory":1,"la1":30.2991,"la2":30.254,"lo1":-89.0895,"lo2":-89.0444,"dy":0.0017,"dx":0.0017,"nx":28,"ny":28,"refTime":"2024-07-01T21:00:00:Z","depth":0,"parameterNumber":3,"parameterNumberName":"V-component_of_WINDS"},"data":[0,0,0,0,0,0,0,0,0,0,0,0,0,0,0,0,0,0,0,0,0,0,0,0,0,0,0,0,0,0,0,0,0,0,0,0,0,0,0,0,0,0,0,0,0,0,0,0,0,0,0,0,0,0,0,0,0,0,-3.6833,-3.6834,0,-3.6883,-3.6883,-3.6884,-3.6887,-3.6887,-3.6886,-3.6886,-3.6932,-3.6934,-3.6935,0,0,0,0,0,0,0,0,0,0,0,0,0,-3.6739,-3.6741,-3.6833,-3.6834,-3.6834,-3.6883,-3.6883,-3.6884,-3.6887,-3.6887,-3.6886,-3.6885,-3.6931,-3.6934,-3.6936,0,0,0,0,0,0,0,0,0,0,0,0,0,-3.6783,-3.6741,-3.6833,-3.6842,-3.6843,-3.6883,-3.6883,-3.6884,-3.6887,-3.6887,-3.6886,-3.6885,-3.6931,-3.6933,-3.6936,-3.6969,0,0,-3.6944,-3.6945,0,0,0,0,0,0,0,0,-3.6781,-3.6787,-3.684,-3.6841,-3.6843,-3.6878,-3.6867,-3.6912,-3.6888,-3.687,-3.6886,-3.6885,-3.6914,-3.6918,-3.6929,-3.6971,-3.6973,-3.6944,-3.6946,-3.6947,-3.6948,0,0,0,0,0,0,0,-3.6778,-3.6784,-3.6853,-3.6841,-3.6842,-3.6843,-3.6848,-3.6876,-3.6896,-3.6872,-3.6872,-3.6878,-3.6915,-3.6927,-3.693,-3.6973,-3.6944,-3.6946,-3.6948,-3.6949,-3.7047,-3.7048,0,0,0,0,0,0,-3.6773,-3.6782,-3.6851,-3.6854,-3.6809,-3.6845,-3.6851,-3.6867,-3.6896,-3.69,-3.6879,-3.6878,-3.6923,-3.6927,-3.6932,-3.6974,-3.6947,-3.6949,-3.6951,-3.7046,-3.7047,-3.7049,0,0,0,0,0,0,-3.6771,-3.6779,-3.6849,-3.6818,-3.6827,-3.6848,-3.6866,-3.6869,-3.6881,-3.6902,-3.6905,-3.6887,-3.6922,-3.6928,-3.6961,-3.6976,-3.695,-3.6953,-3.7045,-3.7047,-3.7048,-3.7058,0,0,0,0,0,0,-3.6768,-3.6779,-3.6791,-3.6819,-3.6829,-3.6877,-3.6867,-3.687,-3.6886,-3.6885,-3.691,-3.6914,-3.6922,-3.6957,-3.6963,-3.6979,-3.6955,-3.7044,-3.7046,-3.7047,-3.7056,-3.7059,-3.7062,0,0,0,0,0,-3.6765,-3.679,-3.6792,-3.68,-3.6845,-3.6878,-3.6884,-3.6894,-3.6887,-3.69,-3.6914,-3.6913,-3.6973,-3.696,-3.6967,-3.6984,-3.7043,-3.7045,-3.7047,-3.7055,-3.7059,-3.7062,0,0,0,0,0,0,-3.6762,-3.6794,-3.6796,-3.6831,-3.6852,-3.6879,-3.6895,-3.6898,-3.692,-3.6918,-3.6929,-3.6935,-3.6967,-3.6979,-3.6963,-3.7019,-3.7007,-3.7011,-3.701,-3.7014,-3.7017,-3.7014,-3.6957,0,0,0,0,0,-3.6766,-3.6791,-3.6817,-3.6845,-3.6856,-3.6874,-3.6888,-3.6895,-3.6917,-3.6925,-3.6941,-3.6961,-3.6985,-3.7,-3.7023,-3.7058,-3.7064,-3.7073,-3.7077,-3.7079,-3.7082,-3.7104,-3.7109,-3.7056,-3.7056,-3.7056,0,0,-3.6773,-3.6794,-3.6808,-3.6845,-3.6862,-3.6888,-3.6881,-3.6907,-3.6926,-3.6928,-3.6961,-3.6974,-3.6997,-3.7031,-3.7047,-3.7042,-3.7099,-3.7082,-3.7084,-3.7086,-3.7107,-3.7112,-3.7117,-3.7058,-3.7057,-3.7057,0,0,-3.6799,-3.6817,-3.6844,-3.6863,-3.689,-3.6902,-3.6909,-3.6936,-3.6945,-3.6978,-3.6981,-3.7003,-3.7043,-3.7061,-3.7075,-3.7112,-3.7112,-3.7119,-3.7135,-3.7156,-3.716,-3.7164,-3.7179,-3.7184,-3.7122,-3.7122,-3.7122,0,-3.6804,-3.6844,-3.6857,-3.6885,-3.6902,-3.6908,-3.6936,-3.6952,-3.6984,-3.6996,-3.699,-3.7043,-3.7058,-3.7099,-3.7108,-3.7119,-3.7127,-3.7116,-3.7159,-3.7163,-3.7167,-3.7181,-3.7186,-3.7123,-3.7123,-3.7123,-3.7123,0,-3.685,-3.6877,-3.6896,-3.693,-3.6949,-3.6976,-3.6994,-3.7012,-3.7018,-3.7031,-3.7065,-3.7085,-3.7113,-3.7123,-3.7128,-3.7165,-3.7161,-3.7157,-3.7145,-3.7172,-3.7186,-3.7191,-3.7124,-3.7124,-3.7124,-3.7123,0,0,-3.6873,-3.6918,-3.6925,-3.6942,-3.6974,-3.6995,-3.7023,-3.7053,-3.7069,-3.7092,-3.7116,-3.7152,-3.715,-3.7165,-3.7172,-3.7191,-3.7222,-3.7185,-3.7186,-3.7192,-3.7266,-3.727,-3.7276,-3.7223,-3.7224,-3.7225,-3.7265,0,-3.6905,-3.6957,-3.6972,-3.7016,-3.7043,-3.7051,-3.7076,-3.7098,-3.7112,-3.7136,-3.715,-3.7176,-3.717,-3.718,-3.7199,-3.7214,-3.7237,-3.7211,-3.7246,-3.7247,-3.7241,-3.7283,-3.7286,-3.7323,-3.727,-3.7271,-3.7271,0,-3.6947,-3.6975,-3.7022,-3.7055,-3.7066,-3.7089,-3.7119,-3.7142,-3.7168,-3.7177,-3.7197,-3.7203,-3.7233,-3.722,-3.7263,-3.7245,-3.726,-3.727,-3.7272,-3.7276,-3.7261,-3.7289,-3.7334,-3.734,-3.728,-3.7279,-3.7278,0,-3.6962,-3.701,-3.7046,-3.706,-3.7098,-3.7114,-3.713,-3.7155,-3.7174,-3.72,-3.7212,-3.724,-3.7256,-3.7278,-3.7292,-3.7281,-3.7334,-3.7321,-3.7342,-3.7342,-3.7352,-3.7352,-3.7402,-3.7361,-3.7361,-3.7361,-3.736,0,-3.6996,-3.7025,-3.7054,-3.7076,-3.7109,-3.7126,-3.7159,-3.7175,-3.7198,-3.7223,-3.7231,-3.7254,-3.7271,-3.7296,-3.7307,-3.7342,-3.7348,-3.7356,-3.7359,-3.7356,-3.7356,-3.7366,-3.7365,-3.7362,-3.7362,-3.7361,-3.7361,0,-3.7017,-3.7038,-3.7078,-3.7112,-3.7121,-3.7144,-3.7173,-3.7195,-3.721,-3.7242,-3.725,-3.7274,-3.7305,-3.7321,-3.7359,-3.7366,-3.7406,-3.7406,-3.7397,-3.7399,-3.7419,-3.7417,-3.7479,-3.7489,-3.744,-3.744,-3.744,0,-3.7038,-3.7061,-3.7099,-3.7118,-3.7135,-3.7164,-3.7184,-3.7202,-3.7222,-3.7256,-3.7274,-3.7306,-3.7332,-3.7382,-3.7401,-3.7431,-3.7433,-3.7453,-3.7437,-3.7435,-3.7435,-3.7434,-3.7437,-3.7455,-3.7455,-3.7456,-3.7456,0,-3.7072,-3.7082,-3.7112,-3.7146,-3.717,-3.7196,-3.7223,-3.7237,-3.726,-3.7282,-3.7315,-3.7336,-3.7377,-3.7409,-3.7441,-3.7456,-3.746,-3.7461,-3.7468,-3.7465,-3.746,-3.7465,-3.7406,-3.7459,-3.7459,-3.7459,-3.7459,-3.7459,-3.7095,-3.7117,-3.7149,-3.7182,-3.7204,-3.723,-3.7253,-3.7273,-3.7302,-3.7338,-3.7346,-3.7382,-3.741,-3.7453,-3.7471,-3.7498,-3.7494,-3.7503,-3.7506,-3.7508,-3.751,-3.7456,-3.7504,-3.7504,-3.7504,-3.7504,-3.7504,0,-3.7131,-3.7153,-3.7183,-3.7222,-3.7249,-3.7253,-3.7283,-3.7305,-3.7337,-3.7363,-3.7391,-3.743,-3.7462,-3.7486,-3.7518,-3.7536,-3.7539,-3.7544,-3.7543,-3.7547,-3.7511,-3.7502,-3.7542,-3.7542,-3.7542,-3.7542,-3.7542,-3.7542,-3.7153,-3.7193,-3.7207,-3.7258,-3.7279,-3.7316,-3.7333,-3.7357,-3.7379,-3.7424,-3.7451,-3.7467,-3.7493,-3.7529,-3.7558,-3.7564,-3.7576,-3.7582,-3.7588,-3.7553,-3.7549,-3.7546,-3.7538,-3.7584,-3.7584,-3.7623,-3.7623,-3.7623]}]]